This is the latest recevied weather packets stored in our database for station/object KB8SSH. If no packets are shown the sender has not sent any weather packets the latest 10 day(s).
| Time | Temp. | Humidity | Pressure | Rain* | Wind** | Luminosity | Snow |
|---|---|---|---|---|---|---|---|
| 1777733304 | 7.78° C | 65% | 1050.9 hPa | 0 mm | - | 113 W/m² | - |
| 1777733001 | 7.78° C | 65% | 1050.9 hPa | 0 mm | - | 137 W/m² | - |
| 1777732696 | 6.67° C | 64% | 1051.2 hPa | 0 mm | - | 160 W/m² | - |
| 1777732394 | 6.67° C | 66% | 1051.2 hPa | 0 mm | - | 94 W/m² | - |
| 1777732092 | 7.22° C | 66% | 1051.2 hPa | 0 mm | - | 129 W/m² | - |
| 1777731788 | 6.67° C | 68% | 1051.2 hPa | 0 mm | - | 101 W/m² | - |
| 1777731485 | 6.11° C | 68% | 1051.2 hPa | 0 mm | - | 107 W/m² | - |
| 1777731184 | 6.67° C | 68% | 1050.9 hPa | 0 mm | - | 62 W/m² | - |
| 1777730881 | 6.11° C | 71% | 1051.2 hPa | 0 mm | - | 78 W/m² | - |
| 1777730578 | 6.11° C | 72% | 1050.9 hPa | 0 mm | - | 48 W/m² | - |
| 1777730274 | 6.11° C | 73% | 1051.2 hPa | 0 mm | - | 42 W/m² | - |
| 1777729971 | 5.56° C | 74% | 1051.2 hPa | 0 mm | - | 41 W/m² | - |
| 1777729667 | 5.56° C | 74% | 1050.9 hPa | 0 mm | - | 107 W/m² | - |
| 1777729364 | 5.56° C | 75% | 1050.9 hPa | 0 mm | - | 55 W/m² | - |
| 1777729061 | 5° C | 75% | 1050.9 hPa | 0 mm | - | 35 W/m² | - |
| 1777728758 | 5.56° C | 76% | 1051.2 hPa | 0 mm | - | 35 W/m² | - |
| 1777728454 | 5° C | 78% | 1050.9 hPa | 0 mm | - | 35 W/m² | - |
| 1777728151 | 5° C | 78% | 1050.9 hPa | 0 mm | - | 52 W/m² | - |
| 1777727848 | 5° C | 77% | 1050.9 hPa | 0 mm | - | 35 W/m² | - |
| 1777727546 | 4.44° C | 78% | 1050.9 hPa | 0 mm | - | 39 W/m² | - |
| 1777727242 | 4.44° C | 80% | 1051.2 hPa | 0 mm | - | 41 W/m² | - |
| 1777726940 | 3.89° C | 79% | 1051.2 hPa | 0 mm | - | 49 W/m² | - |
| 1777726636 | 3.89° C | 80% | 1050.9 hPa | 0 mm | - | 54 W/m² | - |
| 1777726334 | 3.89° C | 80% | 1050.9 hPa | 0 mm | - | 32 W/m² | - |
| 1777726031 | 3.89° C | 81% | 1050.9 hPa | 0 mm | - | 31 W/m² | - |
* Rain latest hour (hover to see other rain measurements)
** Current wind speed in m/s (hover to see current wind gust speed)